Tracking 19224 objects as of 22-Jul-2018
HD Live streaming from Space Station
objects crossing your sky now

ST5-A

Track ST5-A now!
10-day predictions
ST5-A is classified as:


NORAD ID: 28980
Int'l Code: 2006-008A
Perigee: 309.0 km
Apogee: 3,735.0 km
Inclination: 105.6 °
Period: 127.5 minutes
Semi major axis: 8392 km
RCS: 0.3025 m2 (medium)
Launch date: March 22, 2006
Source: United States (US)
Launch site: Pegasus launched from Western Range Air Space (WRAS)
aabbcc
Your satellite tracking list
Your tracking list is empty




NASA's NSSDC Master Catalog

Two Line Element Set (TLE):
1 28980U 06008A   18202.21652006 +.00004397 +00000-0 +20746-3 0  9991
2 28980 105.5655 065.8177 2040977 018.7076 347.8995 11.29092106488240
Source of the keplerian elements: AFSPC